Change the Weather History Date:

Thursday, January 10, 2013

  Actual Average (KBGD) Record (KBGD)
Temperature  
Mean Temperature 37 °F 38 °F  
Max Temperature 41 °F 51 °F 73 °F (1990)
Min Temperature 33 °F 26 °F -5 °F (1962)
Degree Days  
Heating Degree Days 28 27  
Month to date heating degree days 274  
Since 1 July heating degree days 1811  
Cooling Degree Days 0 0  
Month to date cooling degree days 0  
Year to date cooling degree days 0  
Moisture  
Dew Point 34 °F    
Average Humidity 92    
Maximum Humidity 100    
Minimum Humidity 70    
Precipitation  
Precipitation 0.15 in 0.01 in 0.71 in (1991)
Month to date precipitation 0.16  
Year to date precipitation 0.16  
Snow  
Snow 0.00 in - 3.70 in (1991)
Month to date snowfall  
Since 1 July snowfall  
Snow Depth -    
Sea Level Pressure  
Sea Level Pressure 29.87 in    
Wind  
Wind Speed 11 mph (SW)    
Max Wind Speed 23 mph    
Max Gust Speed 20 mph    
Visibility 8 miles    
Events Rain    
T = Trace of Precipitation, MM = Missing Value Source: NWS Daily Summary

Daily Weather History Graph

Daily Weather History Graph

Search for Another Location

Airport or City:

Trip Planner

Search our weather history database for the weather conditions in past years. The results will help you decide how hot, cold, wet, or windy it might be!

Date:

Astronomy

Jan. 10, 2013 Rise Set
Actual Time 7:58 AM CST 5:53 PM CST
Civil Twilight 7:30 AM CST 6:21 PM CST
Nautical Twilight 6:58 AM CST 6:52 PM CST
Astronomical Twilight 6:27 AM CST 7:23 PM CST
Moon 6:40 AM CST (1/10) 5:02 PM CST (1/10)
Length of Visible Light 10h 50m
Length of Day
9h 54m
Waning Crescent, 2% of the Moon is Illuminated
Jan 10
Waning Crescent
Jan 11
New
Jan 18
First Quarter
Jan 26
Full
Feb 3
Last Quarter

Hourly Weather History & Observations

Time (CST) Temp. Windchill Dew Point Humidity Pressure Visibility Wind Dir Wind Speed Gust Speed Precip Events Conditions
12:15 AM 33.8 °F 25.3 °F 33.8 °F 100% 30.15 in 2.5 mi NE 11.5 mph 16.1 mph 0.09 in   Overcast
12:35 AM 33.8 °F 27.0 °F 33.8 °F 100% 30.15 in 4.0 mi NNE 8.1 mph - 0.13 in Rain Rain
12:55 AM 33.8 °F 26.4 °F 33.8 °F 100% 30.14 in 4.0 mi NNE 9.2 mph - 0.15 in Rain Rain
2:15 AM 33.8 °F 27.0 °F 33.8 °F 100% 30.08 in 7.0 mi North 8.1 mph - N/A   Light Drizzle
2:35 AM 33.8 °F 25.8 °F 33.8 °F 100% 30.08 in 7.0 mi NNE 10.4 mph - N/A   Overcast
2:55 AM 33.8 °F 25.8 °F 33.8 °F 100% 30.07 in 7.0 mi North 10.4 mph - N/A Rain Light Rain
3:15 AM 33.8 °F 25.8 °F 33.8 °F 100% 30.05 in 5.0 mi North 10.4 mph - N/A   Light Drizzle
3:35 AM 33.8 °F 24.8 °F 33.8 °F 100% 30.03 in 3.0 mi North 12.7 mph 17.3 mph N/A   Overcast
3:55 AM 33.8 °F 23.5 °F 33.8 °F 100% 30.02 in 3.0 mi North 16.1 mph 19.6 mph N/A   Overcast
4:15 AM 33.8 °F 25.3 °F 33.8 °F 100% 30.02 in 3.0 mi North 11.5 mph - N/A   Overcast
4:35 AM 33.8 °F 25.8 °F 32.0 °F 93% 30.01 in 2.0 mi North 10.4 mph - N/A   Light Drizzle
4:55 AM 33.8 °F 25.8 °F 32.0 °F 93% 30.00 in 1.2 mi North 10.4 mph - N/A Rain Light Rain
5:15 AM 33.8 °F 27.0 °F 32.0 °F 93% 30.00 in 1.0 mi North 8.1 mph - N/A   Overcast
5:35 AM 33.8 °F 27.7 °F 32.0 °F 93% 29.99 in 0.8 mi North 6.9 mph - N/A   Overcast
5:55 AM 33.8 °F 27.7 °F 32.0 °F 93% 29.98 in 0.8 mi NNE 6.9 mph - N/A   Overcast
6:15 AM 33.8 °F 28.6 °F 32.0 °F 93% 29.98 in 1.2 mi North 5.8 mph - N/A   Overcast
6:35 AM 33.8 °F 27.0 °F 32.0 °F 93% 29.98 in 1.2 mi NNE 8.1 mph - N/A   Overcast
6:55 AM 33.8 °F 28.6 °F 32.0 °F 93% 29.97 in 1.5 mi North 5.8 mph - N/A   Overcast
7:35 AM 33.8 °F 27.7 °F 32.0 °F 93% 29.98 in 1.8 mi NNW 6.9 mph - N/A   Overcast
7:55 AM 33.8 °F 27.0 °F 32.0 °F 93% 29.97 in 1.8 mi NNW 8.1 mph - N/A   Overcast
8:15 AM 33.8 °F 25.3 °F 32.0 °F 93% 29.96 in 1.8 mi NW 11.5 mph - N/A   Overcast
8:35 AM 33.8 °F 24.8 °F 33.8 °F 100% 29.93 in 4.0 mi NW 12.7 mph - N/A   Overcast
8:55 AM 33.8 °F 23.9 °F 33.8 °F 100% 29.91 in 7.0 mi NW 15.0 mph - N/A   Overcast
9:15 AM 33.8 °F 23.5 °F 33.8 °F 100% 29.92 in 10.0 mi NW 16.1 mph - N/A   Overcast
9:35 AM 35.6 °F 27.1 °F 33.8 °F 93% 29.92 in 10.0 mi NW 12.7 mph - N/A   Overcast
9:55 AM 35.6 °F 29.2 °F 33.8 °F 93% 29.92 in 10.0 mi NW 8.1 mph - N/A   Mostly Cloudy
10:15 AM 35.6 °F 30.7 °F 33.8 °F 93% 29.95 in 10.0 mi ESE 5.8 mph - N/A   Overcast
10:35 AM 35.6 °F 29.9 °F 33.8 °F 93% 29.93 in 10.0 mi SE 6.9 mph - N/A   Overcast
10:55 AM 35.6 °F 29.9 °F 35.6 °F 100% 29.92 in 7.0 mi SE 6.9 mph - N/A   Overcast
11:15 AM 35.6 °F 29.9 °F 35.6 °F 100% 29.91 in 7.0 mi South 6.9 mph - N/A   Overcast
11:35 AM 37.4 °F 32.8 °F 35.6 °F 93% 29.91 in 10.0 mi South 5.8 mph - N/A   Overcast
11:55 AM 37.4 °F 32.1 °F 35.6 °F 93% 29.90 in 10.0 mi SW 6.9 mph - N/A   Overcast
12:15 PM 37.4 °F 30.8 °F 35.6 °F 93% 29.89 in 10.0 mi SSW 9.2 mph - N/A   Overcast
12:35 PM 39.2 °F 30.8 °F 37.4 °F 93% 29.88 in 10.0 mi SW 15.0 mph - N/A   Overcast
12:55 PM 39.2 °F 31.2 °F 35.6 °F 87% 29.86 in 10.0 mi WSW 13.8 mph - N/A   Overcast
1:15 PM 39.2 °F 35.9 °F 35.6 °F 87% 29.84 in 10.0 mi WSW 4.6 mph - N/A   Overcast
1:35 PM 39.2 °F 34.2 °F 35.6 °F 87% 29.83 in 10.0 mi SSW 6.9 mph - N/A   Overcast
2:15 PM 41.0 °F 34.7 °F 37.4 °F 87% 29.81 in 10.0 mi SSW 10.4 mph - N/A   Overcast
2:35 PM 41.0 °F 34.7 °F 37.4 °F 87% 29.80 in 10.0 mi SSW 10.4 mph - N/A   Overcast
2:55 PM 41.0 °F 33.1 °F 37.4 °F 87% 29.80 in 10.0 mi SSW 15.0 mph - N/A   Overcast
3:15 PM 41.0 °F 32.5 °F 37.4 °F 87% 29.81 in 10.0 mi SW 17.3 mph - N/A   Overcast
3:35 PM 41.0 °F 32.5 °F 37.4 °F 87% 29.81 in 10.0 mi SW 17.3 mph - N/A   Overcast
3:55 PM 41.0 °F 33.5 °F 37.4 °F 87% 29.80 in 10.0 mi SW 13.8 mph - N/A   Overcast
4:15 PM 41.0 °F 32.8 °F 37.4 °F 87% 29.79 in 10.0 mi SW 16.1 mph - N/A   Mostly Cloudy
4:35 PM 41.0 °F 34.3 °F 37.4 °F 87% 29.78 in 10.0 mi SSW 11.5 mph - N/A   Mostly Cloudy
4:55 PM 41.0 °F 34.3 °F 37.4 °F 87% 29.77 in 10.0 mi SSW 11.5 mph - N/A   Scattered Clouds
5:15 PM 41.0 °F 35.8 °F 37.4 °F 87% 29.77 in 10.0 mi SSW 8.1 mph - N/A   Clear
5:35 PM 39.2 °F 34.2 °F 37.4 °F 93% 29.76 in 10.0 mi South 6.9 mph - N/A   Clear
5:55 PM 37.4 °F 31.4 °F 35.6 °F 93% 29.75 in 10.0 mi South 8.1 mph - N/A   Clear
6:15 PM 35.6 °F 29.2 °F 33.8 °F 93% 29.74 in 10.0 mi South 8.1 mph - N/A   Clear
6:35 PM 33.8 °F 27.0 °F 33.8 °F 100% 29.73 in 10.0 mi SSE 8.1 mph - N/A   Clear
6:55 PM 33.8 °F 28.6 °F 33.8 °F 100% 29.73 in 10.0 mi SSE 5.8 mph - N/A   Clear
7:15 PM 33.8 °F 26.4 °F 33.8 °F 100% 29.73 in 7.0 mi SSE 9.2 mph - N/A   Clear
7:35 PM 35.6 °F 29.2 °F 33.8 °F 93% 29.72 in 10.0 mi SSE 8.1 mph - N/A   Clear
7:55 PM 33.8 °F 25.8 °F 33.8 °F 100% 29.72 in 7.0 mi SSE 10.4 mph - N/A   Clear
8:15 PM 35.6 °F 28.0 °F 35.6 °F 100% 29.72 in 10.0 mi South 10.4 mph - N/A   Clear
8:35 PM 35.6 °F 28.0 °F 33.8 °F 93% 29.72 in 10.0 mi SSE 10.4 mph - N/A   Clear
8:55 PM 35.6 °F 28.6 °F 33.8 °F 93% 29.72 in 10.0 mi South 9.2 mph - N/A   Clear
9:15 PM 37.4 °F 29.8 °F 35.6 °F 93% 29.71 in 10.0 mi SSW 11.5 mph - N/A   Clear
9:35 PM 39.2 °F 30.2 °F 35.6 °F 87% 29.70 in 10.0 mi SW 17.3 mph - N/A   Clear
9:55 PM 41.0 °F 31.6 °F 35.6 °F 81% 29.69 in 10.0 mi SW 20.7 mph - N/A   Clear
10:15 PM 41.0 °F 31.1 °F 35.6 °F 81% 29.70 in 10.0 mi SW 23.0 mph - N/A   Clear
10:35 PM 41.0 °F 31.6 °F 33.8 °F 76% 29.71 in 10.0 mi SW 20.7 mph - N/A   Clear
10:55 PM 41.0 °F 32.2 °F 33.8 °F 76% 29.71 in 10.0 mi SW 18.4 mph - N/A   Clear
11:15 PM 41.0 °F 32.2 °F 32.0 °F 70% 29.71 in 10.0 mi SW 18.4 mph - N/A   Clear
11:35 PM 41.0 °F 32.8 °F 32.0 °F 70% 29.70 in 10.0 mi SW 16.1 mph - N/A   Clear
11:55 PM 41.0 °F 32.5 °F 32.0 °F 70% 29.70 in 10.0 mi SW 17.3 mph - N/A   Clear